Location: Dead Woman Crossing
(43.5369°N, 106.3228°W)
Time: 21:55:43
(UTC+00:00)

QB50P2 - Pass Details

Date: 26 June 2022
Orbit: 590 x 605 km, 97.9° (Epoch: 15 August)

Event Time Altitude Azimuth Distance (km) Brightness Sun altitude
Rises 07:17:09 0° 33° (NNE) 2,855 ? -23.1°
Reaches altitude 10° 07:20:21 10° 59° (ENE) 1,949 ? -23.0°
Maximum altitude 07:22:32 14° 91° (E) 1,708 ? -23.0°
Enters shadow 07:23:07 14° 100° (E) 1,724 ? -23.0°
